Wind_Speed
12 13 13 13 13 14 15 15 15 15 14 13 12 11 10 9 8 7 6 5 5 4 5 5 7 7 8 10 12 13 14 16 16 14 12 10 9 8 8 8 8 9 9
10 11 11 11 12 12 13 13 14 14 14 14 13 12 11 10 9 8 7 6 5 4 4 4 4 5 6 8 10 11 12 14 15 14 14 12 11 10 10 10 10 10 10
9 9 10 10 10 10 11 11 12 12 13 13 13 13 12 11 10 9 8 7 5 5 4 3 4 4 4 5 7 8 10 12 13 13 13 13 12 11 11 11 10 10 11
8 8 8 8 8 8 9 9 10 10 11 11 12 12 12 12 11 10 9 8 6 5 4 3 3 3 3 3 4 5 6 8 9 11 12 13 12 12 11 11 10 10 10
8 8 7 7 6 6 7 7 7 8 9 9 9 10 10 11 11 11 10 9 7 6 4 3 2 2 2 2 3 4 4 5 6 7 8 10 10 9 9 9 9 8 8
7 7 7 6 6 6 5 5 6 6 6 7 7 7 8 8 9 9 9 9 8 6 5 4 3 2 2 2 2 3 3 3 4 4 5 6 6 6 6 6 6 6 6
7 7 7 7 6 6 6 5 5 5 5 5 5 5 6 6 6 7 7 8 7 7 6 4 3 2 2 2 2 3 4 4 4 4 4 4 4 4 4 4 4 4 3
7 7 7 7 8 8 7 6 6 5 4 4 4 4 4 4 4 4 5 5 6 6 5 4 3 2 1 1 2 3 3 4 4 5 5 4 4 3 2 2 3 2 2
7 8 8 8 9 9 9 8 7 6 6 5 4 3 3 2 2 2 2 2 3 3 3 3 3 2 2 1 1 2 3 3 4 5 5 5 4 3 3 2 2 1 2
8 9 10 10 10 11 11 10 10 9 8 7 6 5 4 3 3 2 2 2 1 1 1 1 1 1 2 1 1 2 3 4 4 5 6 5 4 3 3 2 2 1 1
9 10 11 12 13 13 13 13 12 12 11 11 10 9 7 6 5 5 4 4 4 3 3 2 2 1 1 1 1 2 3 4 4 5 6 6 5 4 4 3 2 2 2
11 12 13 14 15 16 16 16 15 15 14 14 13 12 11 10 8 7 7 6 6 6 6 5 4 4 2 2 1 2 3 3 4 5 6 6 6 5 5 4 3 3 2
15 15 16 17 17 18 19 19 19 18 18 17 16 15 14 13 12 10 9 9 8 8 8 8 7 6 5 4 3 3 3 3 4 5 5 6 6 6 5 5 5 4 4
19 19 20 20 21 21 22 22 22 22 21 21 20 19 17 16 15 14 13 11 10 10 9 10 9 9 8 7 6 5 5 5 5 5 5 6 6 6 6 6 6 6 5
24 23 24 25 24 24 25 26 25 24 24 24 23 23 21 20 19 17 16 14 13 12 11 11 11 11 11 10 9 8 8 7 7 7 7 7 7 7 7 7 7 7 7
28 28 28 29 29 28 28 29 29 28 27 27 26 26 25 23 22 21 19 17 15 14 14 14 13 13 13 13 12 11 10 10 9 9 9 9 9 8 8 8 8 8 9
33 33 33 33 32 32 32 32 30 31 31 31 30 29 28 26 25 24 22 21 18 16 16 16 15 15 15 15 14 13 13 12 12 12 11 11 11 11 10 10 10 10 10
38 38 38 37 37 36 36 35 35 32 33 34 34 33 32 30 29 27 26 24 21 20 19 18 18 17 17 17 16 16 16 15 15 15 14 14 14 13 13 13 12 12 12
42 43 43 43 41 41 40 38 37 37 35 35 35 36 35 33 32 31 30 27 24 23 22 21 20 19 19 18 18 18 18 18 18 18 17 17 16 16 16 16 15 15 15
45 46 46 46 45 43 43 43 41 40 39 38 37 35 36 35 33 32 31 29 27 26 25 24 22 22 21 20 20 20 20 21 21 21 21 20 20 19 19 19 18 18 17
46 46 47 48 48 48 47 46 44 44 43 42 39 37 36 34 33 32 32 30 28 28 26 24 24 23 24 23 23 22 22 22 23 23 23 23 23 22 22 22 21 21 20
44 45 45 46 48 49 49 49 48 47 47 45 43 40 37 35 35 33 32 29 28 27 27 26 25 25 25 25 24 23 23 24 24 25 25 25 25 25 25 25 24 24 23
40 40 42 43 45 46 48 48 48 48 48 46 44 42 39 35 33 31 30 29 28 27 26 27 28 26 25 26 26 26 26 26 26 26 27 27 27 27 27 27 27 26 26
36 36 37 39 41 43 44 45 45 45 45 45 45 42 40 38 36 34 32 31 31 29 27 27 27 26 26 26 26 27 28 28 28 28 28 29 28 29 29 29 29 28 28
29 31 32 35 37 39 40 41 42 42 42 42 42 41 39 38 37 36 34 31 31 30 28 27 25 25 26 26 26 27 27 28 29 30 30 30 30 30 30 31 31 31 31
23 25 26 28 30 32 33 35 36 37 38 38 38 38 37 36 36 35 34 32 31 31 30 29 28 27 27 27 27 28 29 29 30 31 32 33 32 31 31 31 32 32 32
Wind_Direction
107 103 98 95 94 93 91 90 90 89 89 89 92 95 97 101 104 106 111 116 123 135 153 176 192 199 207 212 217 221 223 225 224 227 231 234 242 254 264 274 282 289 296
116 110 106 100 97 95 93 91 90 88 87 87 88 89 91 93 94 97 100 104 112 126 139 153 172 188 199 207 215 219 220 222 224 228 230 235 244 254 266 273 280 285 291
129 121 116 110 105 101 98 95 93 91 88 87 88 88 88 88 88 89 91 96 104 115 127 140 157 171 188 201 208 212 218 222 225 230 232 238 247 258 264 272 280 284 288
144 137 130 125 118 112 106 103 99 95 92 90 87 86 85 85 85 85 84 86 94 103 114 128 142 157 170 183 194 204 211 220 230 231 235 240 249 257 264 270 278 286 290
158 154 150 145 139 132 124 117 111 105 99 95 91 88 85 83 82 83 83 83 86 93 103 113 122 142 157 166 177 191 205 215 230 234 236 241 247 255 264 272 279 285 292
172 171 170 169 165 159 151 141 132 122 113 105 99 94 89 86 83 82 84 85 86 89 94 101 111 125 151 177 186 197 208 213 222 228 233 234 237 251 261 272 277 285 298
192 189 189 192 191 187 179 171 161 149 137 126 116 107 99 93 88 85 84 85 87 88 91 93 100 112 140 168 189 202 212 216 220 224 218 219 226 240 253 263 271 285 298
211 209 208 209 211 210 206 198 193 184 170 158 148 135 121 110 101 93 89 87 87 89 89 87 85 93 109 151 190 202 210 216 219 216 212 210 212 222 242 254 259 266 286
228 224 222 223 225 225 224 221 216 213 209 202 195 185 171 154 143 132 115 101 94 93 93 91 84 81 92 116 179 199 203 206 210 209 204 202 205 217 229 228 224 240 266
243 238 234 231 232 233 234 234 232 231 229 228 227 225 221 217 215 208 202 198 185 149 125 117 106 90 96 111 142 178 195 201 203 204 201 201 206 209 211 213 208 227 254
256 250 246 243 240 239 238 238 240 240 240 240 240 240 239 237 236 234 228 225 225 226 231 231 228 223 143 133 149 166 186 201 205 205 203 203 204 206 203 202 206 217 219
267 260 255 253 250 247 245 244 244 245 245 246 246 245 245 245 244 242 240 236 232 232 234 239 239 239 237 228 205 185 187 200 205 206 208 207 206 207 207 209 212 214 212
265 264 260 255 253 252 250 249 248 247 246 246 246 247 248 249 249 248 246 244 240 236 235 236 239 239 238 237 234 220 207 204 208 211 213 214 213 213 213 214 215 217 219
264 263 262 259 255 253 252 251 250 249 247 246 246 246 248 250 252 252 250 247 245 241 239 238 238 240 239 237 236 234 229 224 220 218 218 218 218 217 216 216 218 222 226
265 264 264 263 258 254 253 251 249 249 249 249 248 247 247 248 251 252 251 248 246 245 244 242 239 240 241 238 235 235 236 235 232 227 225 223 222 222 220 219 222 225 227
265 263 262 261 260 258 256 254 250 249 248 248 248 247 247 248 249 249 249 248 247 246 246 245 242 241 241 240 236 235 237 239 239 234 232 232 230 229 229 227 226 227 228
262 262 262 261 260 258 256 255 254 251 247 246 246 246 246 246 248 248 247 248 248 249 248 247 246 244 243 242 240 238 238 238 240 239 237 237 236 235 234 233 232 232 233
260 259 260 259 259 258 258 258 255 254 251 248 247 245 246 246 246 247 246 246 247 248 249 249 248 247 246 244 242 241 241 241 241 241 240 240 240 239 237 236 236 237 237
261 259 259 259 258 257 257 258 257 255 254 254 252 248 246 246 246 246 245 244 246 248 249 249 249 249 249 247 245 244 244 243 243 242 241 241 242 241 239 238 237 237 239
262 261 259 259 258 256 256 256 255 255 256 256 256 254 253 250 249 247 245 244 246 249 250 250 251 251 250 249 249 247 247 245 244 244 244 243 242 242 240 239 239 240 241
267 264 261 260 260 258 257 257 257 257 257 258 257 255 256 254 253 252 249 247 249 250 251 251 251 252 251 251 251 250 249 248 247 246 246 245 244 243 242 241 241 242 243
271 268 265 263 262 261 260 259 259 259 258 258 258 255 256 256 256 256 254 252 253 253 254 252 252 253 251 250 249 250 250 249 248 248 247 247 246 246 245 244 243 244 246
274 272 268 265 263 261 260 258 258 258 259 259 258 258 258 258 255 256 256 257 257 258 256 253 253 253 252 252 251 250 250 250 249 250 251 250 248 247 247 248 248 248 248
276 274 272 268 265 262 259 257 256 256 257 258 258 258 257 258 259 257 257 258 257 257 255 254 254 253 254 253 253 250 249 250 250 251 252 252 251 251 250 249 250 250 250
281 277 275 272 268 264 260 257 255 255 255 255 256 256 256 257 258 258 258 257 255 254 254 256 254 253 252 253 251 250 250 249 249 249 250 251 253 253 252 251 251 252 252
288 283 280 277 272 266 260 256 254 254 254 253 253 253 252 253 254 256 258 257 256 255 255 256 255 252 252 254 252 250 251 249 249 249 249 250 252 253 253 253 253 254 254
Height
5922 5921 5921 5921 5921 5920 5920 5919 5918 5918 5917 5916 5915 5914 5914 5913 5913 5913 5912 5912 5912 5912 5912 5912 5913 5913 5914 5915 5916 5917 5918 5919 5921 5922 5923 5924 5924 5924 5924 5924 5923 5923 5922
5923 5922 5922 5922 5922 5922 5921 5921 5920 5919 5918 5917 5916 5916 5915 5914 5914 5913 5913 5912 5912 5912 5912 5912 5913 5913 5913 5914 5914 5915 5917 5918 5919 5921 5922 5922 5923 5923 5923 5923 5922 5922 5921
5924 5923 5923 5923 5923 5923 5922 5922 5921 5920 5920 5919 5918 5917 5916 5915 5914 5914 5913 5913 5913 5912 5912 5912 5913 5913 5913 5913 5914 5915 5916 5916 5918 5919 5920 5921 5921 5922 5922 5921 5921 5921 5920
5924 5924 5924 5924 5924 5923 5923 5923 5922 5922 5921 5920 5919 5918 5917 5916 5915 5914 5914 5913 5913 5913 5913 5912 5913 5913 5913 5913 5914 5914 5915 5915 5917 5918 5919 5919 5920 5920 5920 5920 5920 5920 5919
5924 5924 5924 5924 5924 5924 5924 5923 5923 5922 5922 5921 5920 5919 5918 5917 5916 5915 5914 5914 5913 5913 5913 5912 5912 5912 5913 5913 5913 5914 5914 5915 5916 5916 5917 5918 5918 5919 5919 5919 5918 5918 5918
5924 5923 5923 5924 5924 5924 5924 5923 5923 5923 5922 5921 5921 5920 5919 5918 5917 5916 5915 5915 5914 5913 5913 5913 5913 5912 5913 5913 5913 5914 5914 5915 5915 5916 5916 5916 5917 5918 5918 5917 5917 5917 5917
5924 5923 5923 5923 5923 5923 5923 5923 5923 5922 5922 5921 5921 5920 5919 5919 5918 5917 5916 5915 5915 5914 5913 5913 5913 5912 5912 5913 5913 5913 5914 5914 5915 5915 5915 5916 5916 5917 5917 5917 5916 5916 5916
5923 5923 5922 5922 5922 5922 5922 5922 5922 5921 5921 5921 5920 5920 5919 5919 5918 5917 5917 5916 5915 5915 5914 5913 5913 5912 5912 5912 5912 5913 5913 5913 5914 5914 5915 5915 5916 5916 5916 5916 5916 5916 5916
5922 5922 5921 5921 5921 5921 5921 5921 5920 5920 5920 5919 5919 5919 5918 5918 5918 5917 5917 5916 5915 5915 5914 5914 5913 5913 5912 5912 5912 5912 5912 5913 5913 5913 5914 5915 5915 5916 5916 5915 5916 5916 5916
5921 5920 5920 5920 5919 5919 5919 5919 5919 5918 5918 5918 5918 5917 5917 5917 5916 5916 5916 5915 5915 5915 5914 5914 5913 5913 5912 5912 5912 5912 5912 5912 5912 5913 5913 5914 5915 5915 5915 5915 5916 5916 5916
5919 5919 5918 5918 5918 5917 5917 5917 5917 5916 5916 5916 5916 5915 5915 5915 5915 5915 5914 5914 5914 5914 5914 5913 5913 5912 5912 5912 5911 5911 5911 5911 5912 5912 5913 5913 5914 5914 5915 5915 5915 5916 5916
5917 5917 5916 5916 5916 5915 5915 5914 5914 5914 5914 5913 5913 5913 5913 5913 5913 5912 5912 5912 5913 5913 5912 5912 5912 5912 5911 5911 5911 5911 5911 5911 5911 5911 5912 5912 5913 5913 5914 5914 5915 5915 5915
5914 5913 5912 5912 5912 5912 5912 5911 5911 5911 5911 5911 5910 5910 5910 5910 5910 5910 5910 5910 5910 5910 5911 5911 5910 5910 5910 5910 5910 5910 5910 5910 5911 5911 5911 5912 5912 5912 5913 5913 5914 5914 5915
5910 5909 5909 5908 5908 5907 5907 5907 5906 5907 5907 5907 5907 5907 5907 5907 5907 5907 5907 5907 5908 5908 5908 5908 5908 5909 5909 5909 5909 5909 5909 5910 5910 5910 5910 5911 5911 5912 5912 5913 5913 5914 5914
5905 5904 5903 5903 5902 5901 5901 5901 5900 5901 5902 5902 5903 5903 5903 5903 5903 5904 5904 5904 5904 5905 5905 5906 5906 5906 5906 5907 5907 5908 5908 5909 5909 5909 5910 5910 5910 5911 5911 5912 5912 5912 5913
5898 5897 5897 5896 5895 5895 5895 5895 5895 5895 5895 5896 5897 5897 5897 5898 5898 5899 5900 5900 5901 5901 5902 5902 5903 5903 5904 5904 5905 5906 5906 5907 5907 5908 5908 5909 5909 5909 5910 5910 5911 5911 5912
5891 5891 5890 5889 5889 5889 5888 5888 5888 5888 5888 5889 5890 5891 5891 5892 5893 5894 5895 5895 5896 5897 5898 5898 5899 5900 5900 5901 5902 5903 5903 5904 5905 5905 5906 5907 5907 5908 5908 5909 5909 5909 5910
5883 5882 5882 5881 5881 5881 5881 5881 5881 5881 5881 5882 5883 5884 5884 5885 5886 5887 5889 5890 5891 5892 5893 5894 5895 5896 5897 5898 5898 5899 5900 5901 5902 5903 5903 5904 5905 5905 5906 5906 5907 5907 5908
5873 5873 5873 5873 5873 5873 5873 5873 5873 5874 5874 5874 5875 5875 5876 5878 5879 5880 5882 5883 5885 5886 5887 5889 5890 5891 5892 5893 5894 5896 5896 5897 5898 5899 5900 5901 5901 5902 5903 5903 5904 5905 5905
5863 5863 5862 5862 5863 5863 5864 5864 5864 5866 5866 5866 5867 5868 5869 5871 5872 5873 5874 5876 5878 5880 5881 5883 5884 5885 5887 5888 5889 5891 5892 5893 5894 5895 5896 5897 5897 5898 5899 5900 5901 5901 5902
5851 5851 5851 5851 5852 5853 5853 5854 5855 5856 5857 5858 5859 5861 5862 5863 5865 5867 5868 5870 5871 5873 5874 5876 5878 5879 5880 5882 5884 5885 5886 5888 5889 5890 5891 5892 5893 5894 5895 5896 5896 5897 5898
5839 5838 5839 5839 5840 5841 5842 5843 5845 5846 5847 5849 5851 5853 5854 5856 5858 5860 5862 5863 5864 5866 5868 5869 5871 5872 5874 5876 5878 5879 5880 5883 5883 5884 5886 5887 5888 5889 5890 5891 5892 5893 5893
5827 5826 5826 5827 5827 5829 5830 5832 5834 5835 5837 5839 5841 5843 5845 5848 5850 5852 5854 5857 5858 5860 5861 5862 5864 5865 5867 5868 5871 5873 5874 5876 5877 5879 5880 5881 5882 5883 5884 5885 5886 5887 5888
5817 5816 5815 5814 5815 5816 5817 5819 5822 5824 5826 5828 5831 5833 5836 5839 5841 5844 5846 5849 5850 5852 5853 5855 5856 5858 5860 5861 5863 5865 5867 5869 5871 5872 5873 5875 5876 5877 5878 5879 5880 5881 5882
5807 5806 5804 5803 5803 5803 5805 5807 5810 5813 5815 5818 5821 5824 5826 5829 5832 5835 5838 5840 5842 5844 5846 5848 5849 5851 5853 5854 5856 5858 5860 5861 5863 5864 5866 5868 5869 5870 5871 5872 5873 5874 5875
5799 5797 5795 5794 5793 5793 5794 5796 5799 5802 5805 5808 5811 5814 5817 5820 5823 5827 5829 5831 5834 5836 5839 5840 5842 5843 5845 5847 5848 5850 5852 5853 5855 5856 5858 5859 5861 5862 5864 5865 5866 5867 5868